[[{"header":{"parameterUnit":"m.s-1","parameterCategory":2,"la1":30.2991,"la2":30.254,"lo1":-89.0895,"lo2":-89.0444,"dy":0.0017,"dx":0.0017,"nx":28,"ny":28,"refTime":"2025-12-05T09:00:00:Z","depth":"0","parameterNumber":2,"parameterNumberName":"U-component_of_CURRENTS"},"data":[0,0,0,0,0,0,0,0,0,0,0,0,0,0,0,0,0,0,0,0,0,0,0,0,0,0,0,0,0,0,0,0,0,0,0,0,0,0,0,0,0,0,0,0,0,0,0,0,0,0,0,0,0,0,0,0,0,0,-0.3618,-0.3618,0,-0.3665,-0.3665,-0.3666,-0.363,-0.3629,-0.3628,-0.3626,-0.361,-0.3611,-0.3611,0,0,0,0,0,0,0,0,0,0,0,0,0,-0.3504,-0.3506,-0.3618,-0.3618,-0.3619,-0.3665,-0.3665,-0.3666,-0.363,-0.3629,-0.3627,-0.3626,-0.361,-0.361,-0.3611,0,0,0,0,0,0,0,0,0,0,0,0,0,-0.355,-0.3506,-0.3617,-0.3609,-0.3609,-0.3665,-0.3665,-0.3666,-0.3631,-0.3629,-0.3627,-0.3625,-0.3609,-0.361,-0.3612,-0.3658,0,0,-0.3615,-0.3616,0,0,0,0,0,0,0,0,-0.3547,-0.3554,-0.3609,-0.361,-0.361,-0.3642,-0.3619,-0.3661,-0.3631,-0.362,-0.3626,-0.3624,-0.3618,-0.3618,-0.3629,-0.3657,-0.3656,-0.3615,-0.3616,-0.3616,-0.3617,0,0,0,0,0,0,0,-0.3544,-0.3552,-0.3634,-0.3611,-0.3611,-0.3606,-0.361,-0.3627,-0.3626,-0.3621,-0.3619,-0.3629,-0.3617,-0.3628,-0.3628,-0.3656,-0.3615,-0.3616,-0.3617,-0.3617,-0.3708,-0.371,0,0,0,0,0,0,-0.3546,-0.3549,-0.3632,-0.3635,-0.3576,-0.3609,-0.3614,-0.3631,-0.3627,-0.3626,-0.3631,-0.3627,-0.3627,-0.3626,-0.3627,-0.3669,-0.3616,-0.3617,-0.3618,-0.3706,-0.3708,-0.371,0,0,0,0,0,0,-0.3544,-0.3553,-0.363,-0.3594,-0.3604,-0.3614,-0.3634,-0.3634,-0.3636,-0.3636,-0.3632,-0.3632,-0.3625,-0.3625,-0.3645,-0.3668,-0.3618,-0.3619,-0.3704,-0.3707,-0.3709,-0.3761,0,0,0,0,0,0,-0.354,-0.3552,-0.3561,-0.3595,-0.3606,-0.3664,-0.3636,-0.3636,-0.3647,-0.3642,-0.3637,-0.3633,-0.3624,-0.3643,-0.3646,-0.3669,-0.362,-0.3702,-0.3705,-0.3708,-0.3757,-0.3765,-0.3772,0,0,0,0,0,-0.3536,-0.3557,-0.3561,-0.3571,-0.362,-0.3665,-0.3671,-0.3668,-0.3649,-0.366,-0.3656,-0.3633,-0.3665,-0.3646,-0.3649,-0.3672,-0.37,-0.3704,-0.3708,-0.3754,-0.3763,-0.3771,0,0,0,0,0,0,-0.3509,-0.3557,-0.3562,-0.3595,-0.3628,-0.366,-0.3668,-0.3673,-0.3681,-0.3669,-0.3658,-0.3657,-0.3683,-0.3677,-0.3656,-0.371,-0.3679,-0.3683,-0.3712,-0.3721,-0.3729,-0.372,-0.3621,0,0,0,0,0,-0.3512,-0.3533,-0.3583,-0.3604,-0.3623,-0.3647,-0.3662,-0.3669,-0.3685,-0.3685,-0.3685,-0.3688,-0.3707,-0.371,-0.3724,-0.3756,-0.3725,-0.3773,-0.378,-0.3786,-0.3783,-0.377,-0.3775,-0.3723,-0.3723,-0.3723,0,0,-0.3502,-0.3533,-0.3542,-0.3599,-0.3619,-0.3664,-0.3649,-0.3679,-0.3711,-0.3685,-0.3712,-0.3715,-0.3723,-0.3757,-0.3768,-0.3749,-0.3785,-0.3791,-0.3796,-0.379,-0.3774,-0.3779,-0.3783,-0.3725,-0.3725,-0.3725,0,0,-0.3505,-0.3528,-0.3552,-0.3592,-0.3638,-0.3665,-0.3676,-0.3717,-0.3725,-0.3766,-0.3755,-0.3771,-0.3798,-0.3808,-0.3817,-0.3876,-0.3827,-0.3881,-0.3908,-0.3895,-0.3899,-0.3901,-0.3859,-0.3857,-0.3881,-0.3881,-0.3881,0,-0.3491,-0.3536,-0.3565,-0.3611,-0.3643,-0.3669,-0.3712,-0.3741,-0.3781,-0.3794,-0.3777,-0.3822,-0.3824,-0.3867,-0.3885,-0.3891,-0.3862,-0.3871,-0.3902,-0.3905,-0.3906,-0.3862,-0.386,-0.3884,-0.3884,-0.3883,-0.3883,0,-0.352,-0.3562,-0.3581,-0.3648,-0.3689,-0.3728,-0.3785,-0.3816,-0.3827,-0.385,-0.3888,-0.3895,-0.3913,-0.3927,-0.3924,-0.3951,-0.3917,-0.3914,-0.3874,-0.3914,-0.3865,-0.3862,-0.3888,-0.3887,-0.3886,-0.3886,0,0,-0.3467,-0.358,-0.3583,-0.3624,-0.3712,-0.3747,-0.3813,-0.3876,-0.3905,-0.3934,-0.3964,-0.4001,-0.3986,-0.3996,-0.3994,-0.3987,-0.3974,-0.3955,-0.3953,-0.39,-0.3918,-0.3813,-0.3798,-0.3971,-0.3971,-0.3971,-0.3874,0,-0.3475,-0.356,-0.362,-0.3695,-0.3744,-0.3807,-0.3867,-0.3925,-0.396,-0.3996,-0.4008,-0.4032,-0.4019,-0.4021,-0.4018,-0.3998,-0.3969,-0.3999,-0.3897,-0.3894,-0.3785,-0.3793,-0.3645,-0.354,-0.387,-0.387,-0.3869,0,-0.3476,-0.3538,-0.3615,-0.3726,-0.3751,-0.3802,-0.3887,-0.3945,-0.4014,-0.4038,-0.4064,-0.4068,-0.4083,-0.4053,-0.4018,-0.4035,-0.3973,-0.3943,-0.3938,-0.3817,-0.3782,-0.3557,-0.352,-0.3488,-0.3863,-0.3864,-0.3864,0,-0.3407,-0.3527,-0.3584,-0.3624,-0.3756,-0.3795,-0.3855,-0.3942,-0.3986,-0.4049,-0.4071,-0.4095,-0.4086,-0.405,-0.3989,-0.4001,-0.3922,-0.393,-0.3769,-0.376,-0.3601,-0.3578,-0.3509,-0.3872,-0.3872,-0.3872,-0.3872,0,-0.3387,-0.3427,-0.3554,-0.3585,-0.3644,-0.3752,-0.3811,-0.3878,-0.3968,-0.4001,-0.4067,-0.4078,-0.4081,-0.4042,-0.399,-0.3859,-0.3914,-0.376,-0.3729,-0.3614,-0.3595,-0.3533,-0.3565,-0.3868,-0.3869,-0.387,-0.3871,0,-0.329,-0.3384,-0.3445,-0.3576,-0.3611,-0.3642,-0.3768,-0.3809,-0.3913,-0.3957,-0.3973,-0.4048,-0.4,-0.3973,-0.39,-0.3829,-0.3664,-0.3667,-0.3517,-0.3469,-0.3294,-0.3335,-0.3221,-0.3132,-0.3482,-0.3479,-0.3476,0,-0.3244,-0.3268,-0.3391,-0.3417,-0.3469,-0.3543,-0.3592,-0.3741,-0.379,-0.3919,-0.3921,-0.3925,-0.3868,-0.3744,-0.3643,-0.351,-0.3508,-0.3294,-0.3294,-0.3249,-0.3272,-0.3306,-0.3243,-0.3101,-0.3096,-0.3091,-0.3087,0,-0.3131,-0.3172,-0.322,-0.3277,-0.3329,-0.339,-0.3476,-0.3515,-0.3674,-0.3714,-0.3736,-0.3706,-0.3626,-0.3439,-0.3298,-0.3209,-0.3217,-0.3194,-0.3191,-0.2997,-0.2986,-0.2895,-0.3198,-0.3047,-0.3051,-0.3054,-0.3056,-0.3058,-0.3008,-0.3007,-0.3066,-0.3099,-0.3157,-0.3185,-0.3171,-0.3279,-0.3311,-0.3329,-0.3453,-0.3362,-0.3286,-0.307,-0.2981,-0.28,-0.2899,-0.2719,-0.2777,-0.2819,-0.2716,-0.2917,-0.2712,-0.2714,-0.2716,-0.2718,-0.2719,0,-0.2833,-0.2854,-0.2883,-0.2916,-0.2892,-0.299,-0.3043,-0.2993,-0.2946,-0.3022,-0.2998,-0.2941,-0.2749,-0.2706,-0.2552,-0.2427,-0.2383,-0.238,-0.2408,-0.2365,-0.2554,-0.252,-0.2212,-0.2212,-0.2212,-0.2212,-0.2212,-0.2212,-0.2743,-0.2701,-0.2722,-0.2625,-0.2639,-0.2539,-0.2516,-0.2477,-0.2488,-0.2409,-0.2419,-0.2491,-0.2473,-0.2584,-0.2391,-0.2268,-0.2226,-0.2149,-0.2202,-0.2368,-0.2405,-0.2441,-0.2415,-0.209,-0.209,-0.1914,-0.1913,-0.1913]},{"header":{"parameterUnit":"m.s-1","parameterCategory":2,"la1":30.2991,"la2":30.254,"lo1":-89.0895,"lo2":-89.0444,"dy":0.0017,"dx":0.0017,"nx":28,"ny":28,"refTime":"2025-12-05T09:00:00:Z","depth":"0","parameterNumber":3,"parameterNumberName":"V-component_of_CURRENTS"},"data":[0,0,0,0,0,0,0,0,0,0,0,0,0,0,0,0,0,0,0,0,0,0,0,0,0,0,0,0,0,0,0,0,0,0,0,0,0,0,0,0,0,0,0,0,0,0,0,0,0,0,0,0,0,0,0,0,0,0,-0.0339,-0.0338,0,-0.021,-0.0208,-0.0206,-0.0112,-0.0111,-0.0111,-0.011,0.0083,0.0088,0.0092,0,0,0,0,0,0,0,0,0,0,0,0,0,-0.0433,-0.0432,-0.0339,-0.0338,-0.0336,-0.021,-0.0208,-0.0206,-0.0112,-0.0111,-0.0111,-0.011,0.0082,0.0087,0.0093,0,0,0,0,0,0,0,0,0,0,0,0,0,-0.0355,-0.0432,-0.0339,-0.0276,-0.0269,-0.021,-0.0208,-0.0205,-0.0112,-0.0111,-0.011,-0.011,0.008,0.0086,0.0093,0.0119,0,0,0.0114,0.0117,0,0,0,0,0,0,0,0,-0.036,-0.0351,-0.0287,-0.028,-0.0273,-0.0178,-0.017,-0.0094,-0.0112,-0.0169,-0.011,-0.0109,-0.0001,0.0013,0.0038,0.0128,0.0136,0.0115,0.0119,0.0122,0.0124,0,0,0,0,0,0,0,-0.0365,-0.0356,-0.0285,-0.0286,-0.0277,-0.023,-0.0218,-0.0155,-0.0088,-0.0164,-0.0158,-0.0148,0.0004,0.0031,0.0043,0.0139,0.0115,0.0121,0.0125,0.0128,0.0283,0.0283,0,0,0,0,0,0,-0.0391,-0.0361,-0.0289,-0.0282,-0.0318,-0.0229,-0.0216,-0.0207,-0.009,-0.0072,-0.0148,-0.0144,0.0019,0.0035,0.0051,0.0095,0.0122,0.0129,0.0133,0.0283,0.0283,0.0283,0,0,0,0,0,0,-0.0394,-0.0386,-0.0295,-0.032,-0.0306,-0.023,-0.022,-0.0205,-0.0178,-0.0079,-0.006,-0.0136,0.002,0.0041,0.0104,0.0103,0.0132,0.0138,0.0283,0.0283,0.0283,0.0179,0,0,0,0,0,0,-0.0397,-0.0388,-0.0392,-0.0322,-0.0305,-0.0271,-0.022,-0.0203,-0.0174,-0.0167,-0.0062,-0.0043,0.0022,0.0093,0.0111,0.0113,0.0144,0.0283,0.0283,0.0283,0.0183,0.0176,0.0169,0,0,0,0,0,-0.0401,-0.0414,-0.0393,-0.0384,-0.0313,-0.0272,-0.026,-0.02,-0.0175,-0.017,-0.0097,-0.0047,0.0105,0.0098,0.0119,0.0123,0.0283,0.0283,0.0283,0.0186,0.0177,0.017,0,0,0,0,0,0,-0.0456,-0.0404,-0.0379,-0.0375,-0.0333,-0.0258,-0.025,-0.021,-0.0149,-0.0141,-0.0046,-0.0022,0.0032,0.009,0.008,0.0168,0.0203,0.0206,0.0121,0.0114,0.0107,0.0082,0.0149,0,0,0,0,0,-0.0473,-0.0469,-0.041,-0.0408,-0.0392,-0.0324,-0.03,-0.0261,-0.0199,-0.0172,-0.01,-0.0021,0.0047,0.0088,0.0154,0.0202,0.0269,0.0219,0.0212,0.0206,0.02,0.0299,0.0301,0.0283,0.0283,0.0283,0,0,-0.0495,-0.0466,-0.0463,-0.042,-0.0381,-0.0369,-0.0307,-0.0281,-0.0263,-0.016,-0.0116,-0.0045,0.0053,0.0107,0.0137,0.0157,0.0247,0.0206,0.02,0.0198,0.0299,0.0301,0.0303,0.0283,0.0283,0.0283,0,0,-0.0544,-0.0511,-0.0527,-0.0499,-0.0455,-0.041,-0.0409,-0.0341,-0.0302,-0.0254,-0.0174,-0.0103,-0.0006,0.007,0.012,0.0118,0.0204,0.0135,0.0089,0.0184,0.0187,0.0189,0.0272,0.0283,0.0137,0.0136,0.0136,0,-0.0574,-0.0582,-0.0526,-0.0534,-0.0518,-0.0437,-0.0448,-0.0397,-0.0315,-0.0279,-0.0256,-0.0097,-0.002,0.0066,0.0062,0.0104,0.0164,0.0108,0.0175,0.0179,0.0184,0.0268,0.0281,0.0131,0.0132,0.0133,0.0133,0,-0.0631,-0.0637,-0.0645,-0.0626,-0.06,-0.0598,-0.0525,-0.0489,-0.0434,-0.0369,-0.0283,-0.0174,-0.0076,-0.0043,0.0008,0.0079,0.0112,0.0149,0.0189,0.0179,0.0269,0.0284,0.0124,0.0126,0.0128,0.0129,0,0,-0.0696,-0.0691,-0.0692,-0.0704,-0.0651,-0.0637,-0.0603,-0.0541,-0.0507,-0.0419,-0.0363,-0.0247,-0.0179,-0.0118,-0.0035,0.0043,0.0124,0.0094,0.0102,0.0165,0.0326,0.0374,0.0397,0.0169,0.0171,0.0173,0.0372,0,-0.0759,-0.0811,-0.0774,-0.0807,-0.0826,-0.0742,-0.0716,-0.0643,-0.0558,-0.0481,-0.035,-0.027,-0.0207,-0.0162,-0.0073,0.0081,0.0162,0.0066,0.0336,0.0343,0.038,0.0415,0.0453,0.0636,0.0388,0.0391,0.0393,0,-0.0824,-0.0851,-0.0907,-0.0903,-0.09,-0.0896,-0.0828,-0.0792,-0.0653,-0.0584,-0.0469,-0.036,-0.0222,-0.0178,0.0079,0.0013,0.015,0.0264,0.0276,0.0368,0.0422,0.061,0.0675,0.0868,0.0419,0.0417,0.0415,0,-0.0909,-0.0937,-0.0989,-0.0989,-0.0969,-0.0964,-0.0937,-0.0826,-0.0786,-0.0645,-0.0588,-0.0406,-0.0306,-0.0114,0.0127,0.0104,0.0409,0.0422,0.0596,0.0601,0.0712,0.0723,0.0989,0.0592,0.0592,0.0591,0.0591,0,-0.0992,-0.1029,-0.1037,-0.1069,-0.1111,-0.1055,-0.1054,-0.0989,-0.0883,-0.0825,-0.0652,-0.0555,-0.0289,-0.0076,0.0124,0.0423,0.0424,0.0599,0.0664,0.0676,0.068,0.0916,0.0979,0.0599,0.0597,0.0596,0.0594,0,-0.1077,-0.1083,-0.1146,-0.1156,-0.116,-0.1189,-0.1156,-0.114,-0.1025,-0.094,-0.0901,-0.0651,-0.0365,-0.0082,0.0257,0.0428,0.0831,0.0798,0.0786,0.0844,0.1155,0.1209,0.1534,0.1648,0.1018,0.1021,0.1023,0,-0.1126,-0.1171,-0.1227,-0.1271,-0.1282,-0.1308,-0.1318,-0.1229,-0.1196,-0.0986,-0.0946,-0.066,-0.0423,0.01,0.0449,0.0832,0.0973,0.1069,0.1032,0.1195,0.1304,0.134,0.1414,0.1143,0.1146,0.1149,0.1151,0,-0.1215,-0.1233,-0.1286,-0.1387,-0.1427,-0.146,-0.1458,-0.1456,-0.1321,-0.1198,-0.098,-0.0771,-0.0258,0.0205,0.0687,0.0915,0.1209,0.1127,0.1324,0.1447,0.1481,0.1613,0.0975,0.1172,0.117,0.1168,0.1167,0.1166,-0.1264,-0.1331,-0.1404,-0.1489,-0.1544,-0.1586,-0.1595,-0.1542,-0.1456,-0.1231,-0.1029,-0.065,-0.001,0.069,0.0946,0.1466,0.1412,0.1614,0.1674,0.1702,0.1792,0.1184,0.1428,0.1427,0.1426,0.1426,0.1425,0,-0.1321,-0.1395,-0.1497,-0.159,-0.1659,-0.1658,-0.1658,-0.1604,-0.148,-0.1223,-0.0954,-0.0219,0.0413,0.0992,0.1715,0.1995,0.2053,0.2137,0.2211,0.2266,0.1774,0.1758,0.205,0.205,0.205,0.205,0.2049,0.2049,-0.1352,-0.1463,-0.1522,-0.1653,-0.1713,-0.1743,-0.1731,-0.16,-0.1405,-0.0941,-0.0507,-0.0158,0.0663,0.1792,0.2446,0.251,0.2736,0.2724,0.2846,0.2505,0.2461,0.2418,0.2422,0.2849,0.285,0.3324,0.3328,0.3332]}],[{"header":{"parameterUnit":"m.s-1","parameterCategory":2,"la1":30.2991,"la2":30.254,"lo1":-89.0895,"lo2":-89.0444,"dy":0.0017,"dx":0.0017,"nx":28,"ny":28,"refTime":"2025-12-05T09:00:00:Z","depth":"2","parameterNumber":2,"parameterNumberName":"U-component_of_CURRENTS"},"data":[0,0,0,0,0,0,0,0,0,0,0,0,0,0,0,0,0,0,0,0,0,0,0,0,0,0,0,0,0,0,0,0,0,0,0,0,0,0,0,0,0,0,0,0,0,0,0,0,0,0,0,0,0,0,0,0,0,0,-0.3155,-0.3155,0,-0.3202,-0.3203,-0.3203,-0.3179,-0.3178,-0.3177,-0.3176,-0.3166,-0.3167,-0.3168,0,0,0,0,0,0,0,0,0,0,0,0,0,-0.3049,-0.3051,-0.3155,-0.3156,-0.3156,-0.3202,-0.3203,-0.3203,-0.3179,-0.3178,-0.3177,-0.3176,-0.3166,-0.3167,-0.3168,0,0,0,0,0,0,0,0,0,0,0,0,0,-0.3093,-0.3052,-0.3155,-0.3152,-0.3152,-0.3202,-0.3203,-0.3203,-0.318,-0.3178,-0.3177,-0.3175,-0.3166,-0.3167,-0.3168,-0.3204,0,0,-0.3171,-0.3171,0,0,0,0,0,0,0,0,-0.3091,-0.3097,-0.3151,-0.3152,-0.3153,-0.3186,-0.3162,-0.3202,-0.318,-0.3166,-0.3176,-0.3174,-0.317,-0.3171,-0.318,-0.3204,-0.3203,-0.3171,-0.3172,-0.3172,-0.3172,0,0,0,0,0,0,0,-0.3088,-0.3095,-0.3171,-0.3153,-0.3153,-0.3151,-0.3155,-0.317,-0.3173,-0.3167,-0.3167,-0.3177,-0.317,-0.3179,-0.318,-0.3203,-0.3171,-0.3172,-0.3172,-0.3173,-0.3257,-0.3258,0,0,0,0,0,0,-0.3089,-0.3092,-0.3169,-0.3173,-0.3121,-0.3154,-0.3159,-0.3174,-0.3174,-0.3174,-0.3178,-0.3175,-0.3178,-0.3179,-0.3179,-0.3226,-0.3172,-0.3173,-0.3174,-0.3255,-0.3257,-0.3259,0,0,0,0,0,0,-0.3087,-0.3096,-0.3168,-0.3135,-0.3144,-0.3158,-0.3176,-0.3176,-0.3184,-0.3183,-0.3181,-0.3185,-0.3177,-0.3178,-0.3199,-0.3225,-0.3173,-0.3174,-0.3253,-0.3256,-0.3258,-0.3318,0,0,0,0,0,0,-0.3084,-0.3095,-0.3105,-0.3135,-0.3146,-0.3202,-0.3177,-0.3178,-0.3194,-0.3191,-0.3189,-0.3186,-0.3176,-0.3197,-0.32,-0.3226,-0.3175,-0.3251,-0.3254,-0.3257,-0.3314,-0.3322,-0.3329,0,0,0,0,0,-0.308,-0.31,-0.3106,-0.3115,-0.3161,-0.3203,-0.3209,-0.321,-0.3196,-0.321,-0.3208,-0.3186,-0.3218,-0.32,-0.3202,-0.3229,-0.325,-0.3253,-0.3257,-0.331,-0.332,-0.3328,0,0,0,0,0,0,-0.3059,-0.3101,-0.3107,-0.3139,-0.3171,-0.32,-0.3211,-0.3218,-0.3229,-0.3221,-0.321,-0.3209,-0.3238,-0.3229,-0.321,-0.3263,-0.323,-0.3234,-0.327,-0.3279,-0.3286,-0.3279,-0.3176,0,0,0,0,0,-0.3062,-0.3083,-0.3128,-0.315,-0.3169,-0.3192,-0.3208,-0.3217,-0.3234,-0.3236,-0.3238,-0.3242,-0.3258,-0.3263,-0.3275,-0.3306,-0.3278,-0.3325,-0.3332,-0.3339,-0.3335,-0.3327,-0.3332,-0.3271,-0.3271,-0.3271,0,0,-0.3057,-0.3084,-0.3094,-0.3147,-0.3167,-0.3208,-0.3196,-0.3229,-0.326,-0.3235,-0.3267,-0.327,-0.3274,-0.3308,-0.332,-0.3301,-0.3341,-0.3343,-0.3349,-0.3342,-0.3331,-0.3337,-0.3342,-0.3273,-0.3273,-0.3272,0,0,-0.3063,-0.3086,-0.311,-0.3146,-0.3192,-0.3216,-0.3229,-0.3269,-0.328,-0.3322,-0.3311,-0.3329,-0.3355,-0.3363,-0.337,-0.3428,-0.3384,-0.3434,-0.3464,-0.3457,-0.3461,-0.3464,-0.3429,-0.3429,-0.3435,-0.3436,-0.3436,0,-0.3055,-0.3095,-0.3123,-0.3165,-0.3195,-0.3223,-0.3264,-0.3293,-0.3333,-0.3348,-0.3337,-0.338,-0.3382,-0.3421,-0.3441,-0.3445,-0.342,-0.3428,-0.3465,-0.3468,-0.347,-0.3433,-0.3432,-0.3439,-0.3439,-0.3438,-0.3438,0,-0.3084,-0.3123,-0.3142,-0.3203,-0.3243,-0.328,-0.3334,-0.3367,-0.3383,-0.3407,-0.3447,-0.3455,-0.3473,-0.3488,-0.3482,-0.3512,-0.3481,-0.3476,-0.3437,-0.348,-0.3438,-0.3436,-0.3444,-0.3442,-0.3442,-0.3441,0,0,-0.3041,-0.3142,-0.3146,-0.3182,-0.3266,-0.3298,-0.3363,-0.3422,-0.3451,-0.3488,-0.352,-0.3556,-0.3548,-0.3555,-0.3554,-0.3552,-0.3551,-0.3523,-0.3521,-0.3478,-0.351,-0.3407,-0.3394,-0.3549,-0.3549,-0.3549,-0.347,0,-0.3051,-0.3127,-0.3181,-0.325,-0.3293,-0.3353,-0.341,-0.3468,-0.3505,-0.3544,-0.3561,-0.3589,-0.3579,-0.3585,-0.3587,-0.3567,-0.3549,-0.3571,-0.3482,-0.3479,-0.3375,-0.339,-0.3147,-0.3048,-0.3467,-0.3467,-0.3466,0,-0.3053,-0.3107,-0.3178,-0.3275,-0.3298,-0.3347,-0.3428,-0.3485,-0.3555,-0.3583,-0.3615,-0.3624,-0.3644,-0.3621,-0.3595,-0.3608,-0.3559,-0.3533,-0.3529,-0.3409,-0.3372,-0.3076,-0.3028,-0.3462,-0.3462,-0.3463,-0.3463,0,-0.299,-0.3098,-0.3148,-0.3184,-0.3303,-0.334,-0.3399,-0.3484,-0.3525,-0.3597,-0.362,-0.3651,-0.3651,-0.3624,-0.3574,-0.3584,-0.3521,-0.3526,-0.3381,-0.3373,-0.3133,-0.3103,-0.3484,-0.3485,-0.3485,-0.3485,-0.3485,0,-0.297,-0.3007,-0.3121,-0.3149,-0.3201,-0.3304,-0.3359,-0.3425,-0.3514,-0.3545,-0.3619,-0.3631,-0.365,-0.3621,-0.3577,-0.3462,-0.3517,-0.3376,-0.3347,-0.3147,-0.3121,-0.3459,-0.3457,-0.3482,-0.3483,-0.3483,-0.3484,0,-0.2883,-0.2967,-0.302,-0.3139,-0.3172,-0.3202,-0.3319,-0.3355,-0.346,-0.3502,-0.3523,-0.3603,-0.3567,-0.3555,-0.35,-0.3439,-0.3361,-0.3298,-0.3052,-0.2995,-0.3215,-0.3218,-0.3136,-0.3132,-0.3128,-0.3125,-0.3123,0,-0.2841,-0.2861,-0.2971,-0.2992,-0.304,-0.3111,-0.3153,-0.3293,-0.3335,-0.3462,-0.3461,-0.3482,-0.3429,-0.3331,-0.3241,-0.3125,-0.3234,-0.2843,-0.2825,-0.32,-0.3181,-0.3189,-0.3196,-0.2525,-0.2517,-0.2512,-0.2507,0,-0.2739,-0.2776,-0.2817,-0.2862,-0.2907,-0.2958,-0.3035,-0.3061,-0.3211,-0.3243,-0.3263,-0.3237,-0.318,-0.2962,-0.2851,-0.276,-0.2854,-0.2719,-0.3157,-0.2665,-0.2621,-0.2604,-0.2631,-0.2454,-0.2459,-0.2463,-0.2466,-0.2468,-0.2631,-0.2625,-0.2673,-0.2695,-0.2744,-0.2757,-0.2733,-0.2822,-0.2836,-0.2839,-0.2964,-0.2847,-0.2835,-0.2532,-0.2402,-0.2317,-0.251,-0.2399,-0.2418,-0.2443,-0.2401,-0.2355,-0.2128,-0.2131,-0.2134,-0.2137,-0.2139,0,-0.2475,-0.2484,-0.25,-0.2518,-0.2485,-0.2578,-0.2605,-0.2536,-0.2467,-0.2518,-0.2488,-0.2222,-0.2082,-0.2086,-0.1872,-0.1831,-0.182,-0.1757,-0.1746,-0.1798,-0.1844,-0.1774,-0.1333,-0.1331,-0.1329,-0.1327,0,0,-0.2394,-0.2343,-0.2347,-0.2237,-0.2244,-0.2135,-0.2099,-0.2024,-0.2005,-0.1864,-0.1812,-0.1966,-0.2012,-0.1676,-0.1597,-0.1433,-0.1599,-0.1357,-0.2,-0.2038,-0.2082,-0.2207,-0.2155,0,0,0,0,0]},{"header":{"parameterUnit":"m.s-1","parameterCategory":2,"la1":30.2991,"la2":30.254,"lo1":-89.0895,"lo2":-89.0444,"dy":0.0017,"dx":0.0017,"nx":28,"ny":28,"refTime":"2025-12-05T09:00:00:Z","depth":"2","parameterNumber":3,"parameterNumberName":"V-component_of_CURRENTS"},"data":[0,0,0,0,0,0,0,0,0,0,0,0,0,0,0,0,0,0,0,0,0,0,0,0,0,0,0,0,0,0,0,0,0,0,0,0,0,0,0,0,0,0,0,0,0,0,0,0,0,0,0,0,0,0,0,0,0,0,-0.0339,-0.0338,0,-0.0223,-0.0222,-0.022,-0.0137,-0.0136,-0.0136,-0.0135,0.0036,0.004,0.0044,0,0,0,0,0,0,0,0,0,0,0,0,0,-0.0419,-0.0419,-0.0339,-0.0338,-0.0337,-0.0224,-0.0222,-0.022,-0.0137,-0.0136,-0.0136,-0.0135,0.0034,0.0039,0.0044,0,0,0,0,0,0,0,0,0,0,0,0,0,-0.035,-0.0418,-0.0339,-0.0283,-0.0277,-0.0224,-0.0222,-0.0219,-0.0137,-0.0136,-0.0136,-0.0135,0.0033,0.0039,0.0045,0.0069,0,0,0.0064,0.0066,0,0,0,0,0,0,0,0,-0.0354,-0.0347,-0.0293,-0.0287,-0.028,-0.0196,-0.0187,-0.0121,-0.0137,-0.0188,-0.0135,-0.0135,-0.0039,-0.0027,-0.0004,0.0077,0.0084,0.0064,0.0068,0.007,0.0072,0,0,0,0,0,0,0,-0.0359,-0.0351,-0.0291,-0.0292,-0.0284,-0.0241,-0.023,-0.0174,-0.0116,-0.0183,-0.0177,-0.0169,-0.0035,-0.001,0.0001,0.0086,0.0064,0.0069,0.0073,0.0076,0.0214,0.0214,0,0,0,0,0,0,-0.0383,-0.0356,-0.0294,-0.0288,-0.0319,-0.024,-0.0229,-0.0222,-0.0117,-0.0102,-0.0169,-0.0165,-0.0021,-0.0006,0.0007,0.0046,0.007,0.0076,0.008,0.0214,0.0214,0.0214,0,0,0,0,0,0,-0.0385,-0.0378,-0.0299,-0.0321,-0.0308,-0.024,-0.0233,-0.022,-0.0195,-0.0108,-0.0091,-0.0159,-0.002,-0.0001,0.0055,0.0053,0.0079,0.0085,0.0214,0.0214,0.0214,0.012,0,0,0,0,0,0,-0.0388,-0.038,-0.0385,-0.0323,-0.0308,-0.0278,-0.0233,-0.0218,-0.0192,-0.0185,-0.0093,-0.0076,-0.0018,0.0045,0.0061,0.0062,0.0089,0.0214,0.0214,0.0214,0.0123,0.0117,0.0112,0,0,0,0,0,-0.0391,-0.0403,-0.0386,-0.0378,-0.0316,-0.0279,-0.0267,-0.0214,-0.0193,-0.0188,-0.0124,-0.0079,0.0056,0.005,0.0068,0.0071,0.0214,0.0214,0.0214,0.0126,0.0118,0.0112,0,0,0,0,0,0,-0.044,-0.0394,-0.0374,-0.0371,-0.0334,-0.0266,-0.0259,-0.0223,-0.0169,-0.0162,-0.0078,-0.0057,-0.001,0.0043,0.0034,0.0111,0.0142,0.0146,0.0069,0.0062,0.0057,0.0035,0.0095,0,0,0,0,0,-0.0456,-0.0452,-0.04,-0.0399,-0.0385,-0.0324,-0.0304,-0.0269,-0.0214,-0.0189,-0.0125,-0.0056,0.0005,0.0041,0.0099,0.0142,0.02,0.0156,0.015,0.0145,0.014,0.0225,0.0226,0.0214,0.0214,0.0214,0,0,-0.0475,-0.045,-0.0448,-0.041,-0.0376,-0.0365,-0.0309,-0.0286,-0.0271,-0.0179,-0.0141,-0.0077,0.001,0.0057,0.0084,0.0102,0.0179,0.0145,0.0139,0.0138,0.0225,0.0227,0.0228,0.0214,0.0214,0.0214,0,0,-0.0518,-0.0491,-0.0504,-0.048,-0.044,-0.04,-0.04,-0.0339,-0.0305,-0.0262,-0.0192,-0.0129,-0.0043,0.0023,0.0068,0.0065,0.0141,0.0081,0.0041,0.0122,0.0124,0.0126,0.0197,0.0206,0.0082,0.0082,0.0082,0,-0.0544,-0.0552,-0.0503,-0.0509,-0.0497,-0.0424,-0.0435,-0.039,-0.0317,-0.0288,-0.0265,-0.0125,-0.0056,0.0018,0.0016,0.0052,0.0105,0.0057,0.0114,0.0117,0.0121,0.0193,0.0205,0.0078,0.0078,0.0079,0.0079,0,-0.0593,-0.06,-0.0607,-0.059,-0.0569,-0.0567,-0.0504,-0.0473,-0.0425,-0.037,-0.0294,-0.0196,-0.011,-0.0079,-0.0032,0.0029,0.0059,0.0091,0.0127,0.0117,0.0193,0.0207,0.0071,0.0073,0.0074,0.0075,0,0,-0.065,-0.0645,-0.0647,-0.066,-0.0614,-0.0604,-0.0575,-0.0524,-0.05,-0.0418,-0.0374,-0.0267,-0.0206,-0.0153,-0.0076,-0.0005,0.0065,0.0042,0.0049,0.0102,0.0238,0.0268,0.0286,0.0104,0.0106,0.0107,0.0278,0,-0.0704,-0.075,-0.0719,-0.0752,-0.077,-0.0699,-0.0679,-0.0619,-0.0548,-0.0485,-0.0365,-0.0296,-0.0234,-0.0194,-0.0113,0.0023,0.0097,0.0015,0.0249,0.0255,0.0275,0.0302,0.0257,0.0406,0.0292,0.0294,0.0296,0,-0.076,-0.0785,-0.0837,-0.0841,-0.084,-0.0839,-0.079,-0.0761,-0.0645,-0.0587,-0.0486,-0.0388,-0.0264,-0.0216,0.001,-0.0048,0.008,0.0185,0.0195,0.0265,0.0311,0.0401,0.0436,0.0319,0.0317,0.0316,0.0314,0,-0.0835,-0.0864,-0.0913,-0.0915,-0.0903,-0.0903,-0.0884,-0.0795,-0.0767,-0.0646,-0.0602,-0.044,-0.035,-0.0176,0.0042,0.0027,0.0293,0.0309,0.0459,0.0463,0.0493,0.0496,0.0466,0.0466,0.0466,0.0465,0.0465,0,-0.0908,-0.0944,-0.0956,-0.0986,-0.1032,-0.0986,-0.0997,-0.0945,-0.086,-0.082,-0.0665,-0.0585,-0.0337,-0.0151,0.0033,0.0293,0.0296,0.0461,0.0514,0.0459,0.0457,0.0434,0.0428,0.0471,0.047,0.0469,0.0468,0,-0.0982,-0.099,-0.1052,-0.1068,-0.1075,-0.1107,-0.1092,-0.1087,-0.0994,-0.0932,-0.0898,-0.068,-0.0432,-0.0173,0.0134,0.0286,0.0527,0.0617,0.0529,0.0569,0.064,0.0628,0.0797,0.08,0.0802,0.0804,0.0805,0,-0.1025,-0.1066,-0.1126,-0.1171,-0.1184,-0.1218,-0.1235,-0.1167,-0.1147,-0.0982,-0.0953,-0.0704,-0.0504,-0.0045,0.0267,0.0608,0.061,0.0752,0.0719,0.0642,0.0678,0.0661,0.0646,0.0726,0.0727,0.0727,0.0728,0,-0.1104,-0.1124,-0.1176,-0.1274,-0.132,-0.1361,-0.137,-0.1376,-0.1272,-0.1177,-0.1003,-0.0828,-0.0386,-0.0013,0.0417,0.0607,0.0689,0.0775,0.0751,0.0636,0.0586,0.0616,0.0602,0.0733,0.0733,0.0732,0.0732,0.0732,-0.1151,-0.1212,-0.1283,-0.1368,-0.1427,-0.1477,-0.1494,-0.146,-0.1401,-0.122,-0.1058,-0.0745,-0.04,0.0221,0.0515,0.079,0.0787,0.0854,0.0848,0.0842,0.079,0.0745,0.0913,0.0914,0.0914,0.0915,0.0915,0,-0.1206,-0.1272,-0.1368,-0.1463,-0.1533,-0.154,-0.1557,-0.1515,-0.1422,-0.1216,-0.0999,-0.0588,-0.0168,0.0199,0.0634,0.0883,0.0858,0.092,0.0833,0.0826,0.0821,0.0764,0.0883,0.0883,0.0884,0.0884,0,0,-0.1237,-0.1337,-0.139,-0.1519,-0.1582,-0.1624,-0.1622,-0.1517,-0.1359,-0.1123,-0.0879,-0.0576,-0.0143,0.0154,0.0465,0.069,0.0693,0.0711,0.0711,0.0565,0.0556,0.076,0.0662,0,0,0,0,0]}],[{"header":{"parameterUnit":"m.s-1","parameterCategory":2,"la1":30.2991,"la2":30.254,"lo1":-89.0895,"lo2":-89.0444,"dy":0.0017,"dx":0.0017,"nx":28,"ny":28,"refTime":"2025-12-05T09:00:00:Z","depth":"4","parameterNumber":2,"parameterNumberName":"U-component_of_CURRENTS"},"data":[0,0,0,0,0,0,0,0,0,0,0,0,0,0,0,0,0,0,0,0,0,0,0,0,0,0,0,0,0,0,0,0,0,0,0,0,0,0,0,0,0,0,0,0,0,0,0,0,0,0,0,0,0,0,0,0,0,0,-0.2205,-0.2206,0,-0.2293,-0.2294,-0.2295,-0.2344,-0.2344,-0.2345,-0.2345,-0.2417,-0.2418,-0.242,0,0,0,0,0,0,0,0,0,0,0,0,0,-0.2077,-0.2079,-0.2204,-0.2206,-0.2207,-0.2293,-0.2294,-0.2295,-0.2344,-0.2344,-0.2345,-0.2345,-0.2416,-0.2418,-0.242,0,0,0,0,0,0,0,0,0,0,0,0,0,-0.2144,-0.208,-0.2204,-0.2243,-0.2248,-0.2293,-0.2294,-0.2295,-0.2344,-0.2344,-0.2345,-0.2345,-0.2416,-0.2418,-0.242,-0.2425,0,0,-0.2427,-0.2429,0,0,0,0,0,0,0,0,-0.214,-0.2148,-0.2236,-0.2241,-0.2246,-0.231,-0.2276,-0.2339,-0.2344,-0.2305,-0.2345,-0.2346,-0.2381,-0.2386,-0.2398,-0.2428,-0.2431,-0.2428,-0.2429,-0.243,-0.2431,0,0,0,0,0,0,0,-0.2135,-0.2145,-0.2237,-0.2238,-0.2244,-0.2257,-0.2267,-0.2288,-0.2337,-0.2309,-0.2313,-0.2326,-0.2383,-0.2396,-0.24,-0.2432,-0.2428,-0.243,-0.2431,-0.2432,-0.256,-0.2562,0,0,0,0,0,0,-0.2129,-0.214,-0.2235,-0.224,-0.2196,-0.2259,-0.227,-0.2287,-0.2337,-0.2346,-0.2326,-0.2328,-0.2392,-0.2398,-0.2403,-0.2501,-0.243,-0.2432,-0.2434,-0.2558,-0.256,-0.2562,0,0,0,0,0,0,-0.2126,-0.2136,-0.2231,-0.2194,-0.2207,-0.2261,-0.228,-0.2289,-0.2339,-0.2351,-0.2359,-0.2371,-0.2392,-0.24,-0.2458,-0.2501,-0.2433,-0.2436,-0.2555,-0.2559,-0.2561,-0.2639,0,0,0,0,0,0,-0.2122,-0.2135,-0.2164,-0.2193,-0.2209,-0.2283,-0.228,-0.229,-0.2345,-0.235,-0.2392,-0.2397,-0.2393,-0.2455,-0.2461,-0.2503,-0.2437,-0.2553,-0.2557,-0.256,-0.2634,-0.2644,-0.2653,0,0,0,0,0,-0.2117,-0.2147,-0.2165,-0.2177,-0.2241,-0.2285,-0.2295,-0.2332,-0.2347,-0.2377,-0.2409,-0.2397,-0.2482,-0.2459,-0.2465,-0.2509,-0.2551,-0.2556,-0.256,-0.263,-0.2642,-0.2653,0,0,0,0,0,0,-0.211,-0.2156,-0.2176,-0.2221,-0.2263,-0.2295,-0.2331,-0.2355,-0.2404,-0.2419,-0.2425,-0.2433,-0.2499,-0.2495,-0.2469,-0.2556,-0.2514,-0.252,-0.2565,-0.2577,-0.2586,-0.2574,-0.2439,0,0,0,0,0,-0.2121,-0.2157,-0.22,-0.224,-0.2264,-0.2306,-0.2336,-0.2364,-0.2402,-0.2426,-0.2456,-0.2487,-0.2516,-0.254,-0.2564,-0.2614,-0.2585,-0.2646,-0.2655,-0.2663,-0.2659,-0.2657,-0.2665,-0.2577,-0.2577,-0.2577,0,0,-0.213,-0.2161,-0.2184,-0.2242,-0.2278,-0.2323,-0.2326,-0.2385,-0.243,-0.2425,-0.2506,-0.2526,-0.2537,-0.2595,-0.2623,-0.2601,-0.2675,-0.2669,-0.2676,-0.2666,-0.2662,-0.267,-0.2678,-0.258,-0.2579,-0.2579,0,0,-0.2152,-0.2196,-0.223,-0.2271,-0.2335,-0.2361,-0.2387,-0.2445,-0.2484,-0.2556,-0.2562,-0.2608,-0.2663,-0.2676,-0.2686,-0.2763,-0.2725,-0.2779,-0.2821,-0.282,-0.2826,-0.2832,-0.2806,-0.2808,-0.2784,-0.2784,-0.2784,0,-0.2165,-0.2211,-0.2249,-0.2294,-0.2334,-0.2382,-0.243,-0.2476,-0.2551,-0.2582,-0.2595,-0.2679,-0.2696,-0.2745,-0.2776,-0.2784,-0.2767,-0.2776,-0.2831,-0.2835,-0.2839,-0.2811,-0.2813,-0.2789,-0.2788,-0.2788,-0.2787,0,-0.2199,-0.2255,-0.2281,-0.2352,-0.2401,-0.2453,-0.2515,-0.2577,-0.2629,-0.2665,-0.2744,-0.2772,-0.2812,-0.2835,-0.2833,-0.288,-0.2853,-0.2841,-0.2797,-0.2853,-0.282,-0.282,-0.2795,-0.2793,-0.2792,-0.2791,0,0,-0.2172,-0.2283,-0.2297,-0.2341,-0.2438,-0.2475,-0.2563,-0.2637,-0.2688,-0.2765,-0.282,-0.2886,-0.2899,-0.2911,-0.292,-0.2929,-0.2951,-0.2906,-0.2904,-0.2871,-0.2934,-0.2745,-0.2726,-0.2952,-0.2953,-0.2953,-0.2898,0,-0.2188,-0.2272,-0.233,-0.2419,-0.2465,-0.2544,-0.2614,-0.2692,-0.2757,-0.2825,-0.2866,-0.2923,-0.2928,-0.2955,-0.2969,-0.2958,-0.2956,-0.2966,-0.2892,-0.2889,-0.2706,-0.2722,-0.2956,-0.2898,-0.2898,-0.2898,-0.2898,0,-0.2189,-0.2249,-0.2337,-0.2448,-0.2477,-0.2545,-0.2654,-0.2724,-0.2822,-0.2872,-0.2935,-0.2964,-0.3009,-0.2998,-0.2999,-0.3008,-0.2978,-0.2959,-0.2956,-0.2748,-0.2699,-0.2831,-0.2897,-0.2897,-0.2897,-0.2897,-0.2897,0,-0.2123,-0.2248,-0.2318,-0.2359,-0.2494,-0.2556,-0.2631,-0.274,-0.2793,-0.2902,-0.2938,-0.2998,-0.3024,-0.3016,-0.2991,-0.3002,-0.2962,-0.2965,-0.2762,-0.2748,-0.2902,-0.2896,-0.2948,-0.2948,-0.2948,-0.2948,-0.2948,0,-0.2089,-0.215,-0.2301,-0.2338,-0.2419,-0.2532,-0.262,-0.2703,-0.2809,-0.2845,-0.2953,-0.2965,-0.3031,-0.3019,-0.2993,-0.2859,-0.2959,-0.2753,-0.2716,-0.2937,-0.2936,-0.2901,-0.2896,-0.2946,-0.2947,-0.2947,-0.2947,0,-0.1994,-0.21,-0.2183,-0.2338,-0.239,-0.2447,-0.2597,-0.264,-0.2768,-0.2816,-0.2849,-0.2943,-0.2917,-0.2939,-0.2913,-0.2825,-0.2743,-0.2671,-0.2889,-0.2868,-0.2532,-0.2533,-0.2433,-0.2426,-0.2419,-0.2414,-0.241,0,-0.1947,-0.1983,-0.2152,-0.2195,-0.2272,-0.238,-0.2437,-0.2594,-0.2629,-0.2762,-0.2749,-0.2794,-0.2824,-0.262,-0.2684,-0.2598,-0.2572,-0.2518,-0.2538,-0.2502,-0.2478,-0.2489,-0.2497,-0.24,-0.2399,-0.2397,-0.2395,0,-0.1841,-0.192,-0.1985,-0.2072,-0.2151,-0.2218,-0.2315,-0.2319,-0.247,-0.2616,-0.2561,-0.2537,-0.2498,-0.2471,-0.2417,-0.2367,-0.2551,-0.2453,-0.2466,-0.2486,-0.2462,-0.2446,-0.2462,-0.2374,-0.2377,-0.2379,-0.238,0,-0.1755,-0.1768,-0.1858,-0.191,-0.2001,-0.2008,-0.2091,-0.2117,-0.2171,-0.2328,-0.2299,-0.2353,-0.2454,-0.2348,-0.2301,-0.2231,-0.2206,-0.2141,-0.217,-0.2194,-0.2144,-0.2081,-0.1826,0,0,0,0,0,-0.1653,-0.1641,-0.1682,-0.1728,-0.1808,-0.1852,-0.1976,-0.2062,-0.2213,-0.2103,-0.2194,-0.2146,-0.2083,-0.2124,-0.1998,-0.22,-0.2219,-0.2047,-0.2162,-0.2256,-0.2281,-0.2245,0,0,0,0,0,0,-0.1584,-0.1616,-0.1618,-0.1553,-0.1545,-0.1605,-0.1671,-0.1782,-0.1738,-0.1902,-0.187,-0.2006,-0.197,-0.21,-0.1946,-0.1958,-0.1984,-0.2104,-0.2098,-0.2242,-0.2264,-0.2284,-0.2256,0,0,0,0,0]},{"header":{"parameterUnit":"m.s-1","parameterCategory":2,"la1":30.2991,"la2":30.254,"lo1":-89.0895,"lo2":-89.0444,"dy":0.0017,"dx":0.0017,"nx":28,"ny":28,"refTime":"2025-12-05T09:00:00:Z","depth":"4","parameterNumber":3,"parameterNumberName":"V-component_of_CURRENTS"},"data":[0,0,0,0,0,0,0,0,0,0,0,0,0,0,0,0,0,0,0,0,0,0,0,0,0,0,0,0,0,0,0,0,0,0,0,0,0,0,0,0,0,0,0,0,0,0,0,0,0,0,0,0,0,0,0,0,0,0,-0.0259,-0.0258,0,-0.0182,-0.0181,-0.018,-0.0124,-0.0123,-0.0123,-0.0123,0.0004,0.0007,0.001,0,0,0,0,0,0,0,0,0,0,0,0,0,-0.0303,-0.0302,-0.0259,-0.0258,-0.0257,-0.0182,-0.0181,-0.0179,-0.0124,-0.0123,-0.0123,-0.0123,0.0003,0.0006,0.001,0,0,0,0,0,0,0,0,0,0,0,0,0,-0.0259,-0.0302,-0.0259,-0.0222,-0.0218,-0.0182,-0.0181,-0.0179,-0.0124,-0.0123,-0.0123,-0.0123,0.0002,0.0006,0.0011,0.0031,0,0,0.0025,0.0027,0,0,0,0,0,0,0,0,-0.0261,-0.0257,-0.0228,-0.0224,-0.022,-0.0164,-0.015,-0.0107,-0.0124,-0.0157,-0.0123,-0.0122,-0.0049,-0.004,-0.0024,0.0037,0.0043,0.0025,0.0028,0.003,0.0032,0,0,0,0,0,0,0,-0.0264,-0.0259,-0.0226,-0.0227,-0.0222,-0.0191,-0.0184,-0.0141,-0.0104,-0.0154,-0.0151,-0.0146,-0.0046,-0.0029,-0.0021,0.0045,0.0025,0.0029,0.0032,0.0034,0.014,0.014,0,0,0,0,0,0,-0.0282,-0.0263,-0.0228,-0.0224,-0.0242,-0.0191,-0.0183,-0.018,-0.0105,-0.0095,-0.0146,-0.0143,-0.0037,-0.0027,-0.0016,0.001,0.003,0.0035,0.0037,0.014,0.014,0.014,0,0,0,0,0,0,-0.0283,-0.0279,-0.0232,-0.0243,-0.0235,-0.0191,-0.0188,-0.0179,-0.0164,-0.01,-0.0088,-0.0141,-0.0037,-0.0023,0.0018,0.0016,0.0037,0.0041,0.014,0.014,0.014,0.0066,0,0,0,0,0,0,-0.0284,-0.028,-0.0287,-0.0244,-0.0235,-0.0219,-0.0188,-0.0178,-0.0163,-0.0159,-0.0091,-0.0079,-0.0035,0.0011,0.0023,0.0023,0.0045,0.014,0.014,0.014,0.0068,0.0063,0.0059,0,0,0,0,0,-0.0286,-0.0298,-0.0288,-0.0284,-0.0245,-0.022,-0.0212,-0.0177,-0.0163,-0.0161,-0.0115,-0.0081,0.002,0.0014,0.0029,0.003,0.014,0.014,0.014,0.007,0.0064,0.0059,0,0,0,0,0,0,-0.032,-0.0292,-0.0281,-0.0283,-0.0259,-0.0212,-0.0209,-0.0185,-0.0147,-0.0143,-0.0081,-0.0065,-0.0031,0.001,0.0003,0.0061,0.0086,0.0088,0.0027,0.0022,0.0018,0.0001,0.0049,0,0,0,0,0,-0.0333,-0.0335,-0.03,-0.0304,-0.0296,-0.0255,-0.0242,-0.0218,-0.0179,-0.0162,-0.0116,-0.0064,-0.0019,0.0008,0.0052,0.0084,0.013,0.0095,0.009,0.0086,0.0083,0.0148,0.0149,0.0141,0.0141,0.0141,0,0,-0.0348,-0.0333,-0.0335,-0.0312,-0.029,-0.0285,-0.0245,-0.0232,-0.0224,-0.0154,-0.0131,-0.0081,-0.0015,0.002,0.004,0.0054,0.0112,0.0086,0.0082,0.0081,0.0148,0.0149,0.015,0.0141,0.0141,0.0141,0,0,-0.038,-0.0367,-0.0379,-0.0364,-0.0341,-0.0314,-0.0315,-0.0273,-0.0251,-0.0222,-0.017,-0.0123,-0.0058,-0.0008,0.0026,0.0024,0.0082,0.0036,0.0004,0.0067,0.0068,0.007,0.0123,0.013,0.0038,0.0037,0.0037,0,-0.0401,-0.0411,-0.0379,-0.0386,-0.0382,-0.0332,-0.0344,-0.0313,-0.0263,-0.0245,-0.0227,-0.0123,-0.007,-0.0015,-0.0015,0.0013,0.0054,0.0017,0.006,0.0063,0.0066,0.012,0.0129,0.0034,0.0034,0.0035,0.0035,0,-0.0436,-0.0448,-0.0455,-0.0449,-0.0437,-0.044,-0.0399,-0.0381,-0.035,-0.0312,-0.0259,-0.0181,-0.012,-0.0093,-0.0054,-0.0007,0.0017,0.0042,0.007,0.0062,0.012,0.013,0.0029,0.003,0.0031,0.0032,0,0,-0.0473,-0.0481,-0.0485,-0.0501,-0.0474,-0.0472,-0.0457,-0.0428,-0.0419,-0.0357,-0.0332,-0.0246,-0.0201,-0.0159,-0.0097,-0.0038,0.0018,0.0003,0.0008,0.0047,0.0151,0.0128,0.0137,0.0049,0.0051,0.0052,0.0181,0,-0.0513,-0.0553,-0.0538,-0.0573,-0.0591,-0.0549,-0.0542,-0.0507,-0.0461,-0.0422,-0.0329,-0.0282,-0.0226,-0.0196,-0.0129,-0.002,0.0042,-0.002,0.016,0.0166,0.0139,0.0147,0.0057,0.0189,0.0191,0.0193,0.0194,0,-0.055,-0.0575,-0.0624,-0.0646,-0.0649,-0.0659,-0.0642,-0.0629,-0.0554,-0.0515,-0.0442,-0.0367,-0.0271,-0.0224,-0.0043,-0.0087,0.0021,0.011,0.0117,0.0128,0.0161,0.0203,0.0214,0.0212,0.0211,0.0209,0.0208,0,-0.0597,-0.0634,-0.0682,-0.0689,-0.07,-0.0714,-0.0712,-0.0661,-0.0651,-0.0571,-0.0544,-0.0421,-0.0353,-0.0209,-0.003,-0.0035,0.0173,0.0193,0.0278,0.0278,0.0293,0.0291,0.0324,0.0324,0.0323,0.0323,0.0322,0,-0.064,-0.068,-0.0716,-0.0744,-0.08,-0.0779,-0.0811,-0.0782,-0.0735,-0.0717,-0.0602,-0.0546,-0.0346,-0.0202,-0.0044,0.0143,0.0166,0.0273,0.031,0.0259,0.025,0.0301,0.0296,0.0328,0.0327,0.0326,0.0325,0,-0.0679,-0.0702,-0.0767,-0.0808,-0.0828,-0.0867,-0.0892,-0.0901,-0.0847,-0.0816,-0.0793,-0.0633,-0.0446,-0.0239,0.0011,0.0118,0.0304,0.037,0.0293,0.0325,0.0371,0.0361,0.0466,0.0467,0.0467,0.0467,0.0467,0,-0.0701,-0.0739,-0.0826,-0.0876,-0.0903,-0.0957,-0.0989,-0.0963,-0.0958,-0.086,-0.0838,-0.0663,-0.0535,-0.0195,0.0009,0.0299,0.0341,0.0423,0.0399,0.0359,0.0386,0.0376,0.0366,0.0468,0.0468,0.0468,0.0468,0,-0.0741,-0.0778,-0.0832,-0.0939,-0.1002,-0.1059,-0.1093,-0.1097,-0.1044,-0.1003,-0.0851,-0.0667,-0.0453,-0.0196,0.0029,0.0237,0.0355,0.0426,0.0427,0.0405,0.0362,0.0386,0.0376,0.0469,0.0468,0.0468,0.0468,0,-0.0766,-0.0818,-0.0898,-0.0984,-0.1071,-0.1122,-0.1141,-0.1108,-0.1087,-0.0963,-0.0915,-0.0668,-0.0521,-0.0226,-0.0019,0.0176,0.0221,0.0269,0.0279,0.028,0.018,0.0095,0.0152,0,0,0,0,0,-0.0783,-0.0841,-0.0934,-0.1025,-0.1111,-0.1151,-0.1187,-0.1183,-0.1136,-0.1033,-0.0965,-0.0754,-0.0428,-0.0283,-0.0089,-0.0037,0.0231,0.019,0.0284,0.0473,0.0472,0.0383,0,0,0,0,0,0,-0.0796,-0.0884,-0.0931,-0.1033,-0.1097,-0.1174,-0.1197,-0.1169,-0.1094,-0.1019,-0.0837,-0.0727,-0.0406,-0.0529,-0.0087,-0.003,0.0049,0.0351,0.0354,0.0473,0.0473,0.0472,0.038,0,0,0,0,0]}]]